Weather History for CWDK - January, 2013

Change the Weather History Date:

Thursday, January 24, 2013

  Actual Average Record
Temperature  
Mean Temperature 26 °F -  
Max Temperature 42 °F - - ()
Min Temperature 11 °F - - ()
Degree Days  
Heating Degree Days 38    
Moisture  
Dew Point 20 °F    
Average Humidity 56    
Maximum Humidity 83    
Minimum Humidity 33    
Precipitation  
Precipitation 0.00 in - - ()
Sea Level Pressure  
Sea Level Pressure 29.95 in    
Wind  
Wind Speed 9 mph ()    
Max Wind Speed 22 mph    
Max Gust Speed 29 mph    
T = Trace of Precipitation, MM = Missing Value Source: Averaged Metar Reports

Daily Weather History Graph

Daily Weather History Graph

Search for Another Location

Airport or City:

Trip Planner

Search our weather history database for the weather conditions in past years. The results will help you decide how hot, cold, wet, or windy it might be!

Date:

Astronomy

Jan. 24, 2013 Rise Set
Actual Time 8:18 AM MST 5:16 PM MST
Civil Twilight 7:42 AM MST 5:51 PM MST
Nautical Twilight 7:02 AM MST 6:31 PM MST
Astronomical Twilight 6:24 AM MST 7:09 PM MST
Moon 3:18 PM MST (1/24) 6:22 AM MST (1/24)
Length of Visible Light 10h 09m
Length of Day
8h 58m
Waxing Gibbous, 95% of the Moon is Illuminated
Jan 24
Waxing Gibbous
Jan 26
Full
Feb 3
Last Quarter
Feb 10
New
Feb 17
First Quarter

Hourly Weather History & Observations

Time (MST) Temp. Windchill Dew Point Humidity Pressure Visibility Wind Dir Wind Speed Gust Speed Precip Events Conditions
12:00 AM 25.0 °F 20.7 °F 20.5 °F 83% 29.78 in - NNW 3.5 mph - N/A   Unknown
1:00 AM 39.0 °F 31.0 °F 27.3 °F 63% 29.73 in - SW 13.8 mph - N/A   Unknown
2:00 AM 38.7 °F 29.5 °F 26.4 °F 61% 29.73 in - WSW 17.3 mph - N/A   Unknown
3:00 AM 38.8 °F 28.5 °F 26.1 °F 60% 29.71 in - WSW 21.9 mph 28.8 mph N/A   Unknown
4:00 AM 38.1 °F 28.4 °F 23.9 °F 57% 29.73 in - West 18.4 mph 28.8 mph N/A   Unknown
5:00 AM 35 °F - 22 °F 46% 29.82 in - West 6.9 mph - -  
5:00 AM 35.2 °F 29.5 °F 21.9 °F 58% 29.82 in - West 6.9 mph - N/A   Unknown
6:00 AM 36.7 °F - 21.0 °F 53% 29.85 in - West 2.3 mph - N/A   Unknown
7:00 AM 29.1 °F 21.3 °F 15.6 °F 57% 29.92 in - North 8.1 mph - N/A   Unknown
8:00 AM 18.5 °F - 13.8 °F 82% 29.96 in - WSW 2.3 mph - N/A   Unknown
9:00 AM 16.0 °F 5.3 °F 10.6 °F 79% 30.05 in - North 8.1 mph - N/A   Unknown
10:00 AM 24.3 °F - 15.4 °F 69% 30.07 in - NNW 2.3 mph - N/A   Unknown
11:00 AM 33 °F - 22 °F 53% 30.07 in - SSW 3.5 mph - -  
11:00 AM 33.3 °F 30.2 °F 22.3 °F 64% 30.07 in - SSW 3.5 mph - N/A   Unknown
12:00 PM 37.6 °F 33.1 °F 25.2 °F 61% 30.02 in - NNE 5.8 mph - N/A   Unknown
1:00 PM 38.8 °F 33.8 °F 25.2 °F 58% 30.01 in - SSE 6.9 mph - N/A   Unknown
2:00 PM 39.7 °F 34.3 °F 25.0 °F 56% 29.99 in - SE 8.1 mph - N/A   Unknown
3:00 PM 40.3 °F 36.3 °F 23.9 °F 52% 29.98 in - ESE 5.8 mph - N/A   Unknown
4:00 PM 38.5 °F 29.6 °F 18.9 °F 45% 30.00 in - West 16.1 mph 23.0 mph N/A   Unknown
5:00 PM 37 °F - 18 °F 33% 30.02 in - WSW 12.7 mph - -  
5:00 PM 37.0 °F 28.9 °F 18.3 °F 47% 30.02 in - WSW 12.7 mph - N/A   Unknown
6:00 PM 36.5 °F 28.2 °F 18.3 °F 48% 30.04 in - West 12.7 mph 19.6 mph N/A   Unknown
7:00 PM 36.0 °F 29.0 °F 18.9 °F 50% 30.06 in - WSW 9.2 mph - N/A   Unknown
8:00 PM 36.0 °F 28.0 °F 19.9 °F 52% 30.05 in - WSW 11.5 mph 20.7 mph N/A   Unknown
9:00 PM 36.7 °F 27.2 °F 18.0 °F 47% 30.01 in - WSW 16.1 mph 25.3 mph N/A   Unknown
10:00 PM 35.2 °F 23.8 °F 18.5 °F 51% 30.00 in - WSW 21.9 mph 27.6 mph N/A   Unknown
11:00 PM 33 °F - 17 °F 39% 30.00 in - WSW 15.0 mph - -  
11:00 PM 33.4 °F 23.5 °F 17.4 °F 52% 30.00 in - WSW 15.0 mph 21.9 mph N/A   Unknown